This demonstration page uses our WeatherBlox Daily Observations layout. Learn more.

Left ArrowRight Arrow

Hourly Observations for June 10, 2016

Temp ( °F °C ) Dew Point ( °F °C ) Humidity (%) Winds ( mph kmh ) Pressure ( in mb ) Visibility ( mi km ) Precip ( " mm )
12:54 am 00:54 Clear 80 26.7 62 16.7 54 54 S 16 26 29.77 1008 10 16.0934 0 0
1:54 am 01:54 Clear 79 26.1 62 16.7 56 56 S 15 24 29.78 1008 10 16.0934 0 0
2:54 am 02:54 Clear 79 26.1 62 16.7 56 56 S 15 24 29.78 1008 10 16.0934 0 0
3:54 am 03:54 Clear 77 25 63 17.2 62 62 S 12 19 29.79 1009 10 16.0934 0 0
4:54 am 04:54 Clear 76 24.4 63 17.2 64 64 S 13 20 29.79 1009 10 16.0934 0 0
5:54 am 05:54 Clear 75 23.9 64 17.8 69 69 S 13 20 29.81 1010 10 16.0934 0 0
6:54 am 06:54 Sunny 75 23.9 65 18.3 71 71 S 12 19 29.82 1010 10 16.0934 0 0
7:54 am 07:54 Sunny 78 25.6 66 18.9 67 67 S 14 22 29.84 1010 10 16.0934 0 0
8:54 am 08:54 Sunny 81 27.2 67 19.4 62 62 S 15 24 29.85 1011 10 16.0934 0 0
9:54 am 09:54 Sunny 84 28.9 67 19.4 57 57 SSW 16 26 29.84 1010 10 16.0934 0 0
10:54 am 10:54 Sunny 86 30 66 18.9 51 51 SSW 17 28 29.85 1011 10 16.0934 0 0
11:54 am 11:54 Sunny 90 32.2 67 19.4 47 47 S 20 31 29.83 1010 10 16.0934 0 0
12:54 pm 12:54 Sunny 92 33.3 66 18.9 43 43 S 16 26 29.84 1010 10 16.0934 0 0
1:54 pm 13:54 Sunny 94 34.4 66 18.9 40 40 SSW 17 28 29.83 1010 10 16.0934 0 0
2:54 pm 14:54 Sunny 95 35 67 19.4 40 40 S 22 35 29.81 1009 10 16.0934 0 0
3:54 pm 15:54 Sunny 96 35.6 66 18.9 37 37 SSW 18 30 29.8 1009 10 16.0934 0 0
4:54 pm 16:54 Sunny 95 35 67 19.4 40 40 SSW 20 31 29.79 1009 10 16.0934 0 0
5:54 pm 17:54 Mostly Sunny 95 35 67 19.4 40 40 S 22 35 29.8 1009 10 16.0934 0 0
6:54 pm 18:54 Sunny 94 34.4 67 19.4 41 41 S 15 24 29.8 1009 10 16.0934 0 0
7:54 pm 19:54 Sunny 91 32.8 67 19.4 45 45 SSW 13 20 29.81 1009 10 16.0934 0 0
8:54 pm 20:54 Sunny 84 28.9 68 20 59 59 S 8 13 29.82 1010 10 16.0934 0 0
9:54 pm 21:54 Clear 81 27.2 68 20 65 65 S 9 15 29.83 1010 10 16.0934 0 0
10:54 pm 22:54 Clear 82 27.8 68 20 63 63 S 10 17 29.85 1011 10 16.0934 0 0
11:54 pm 23:54 Clear 82 27.8 67 19.4 60 60 S 14 22 29.84 1011 10 16.0934 0 0

Powered by AerisWeather